Weather History for KMNM - September, 2014

Change the Weather History Date:

Thursday, September 4, 2014

  Actual Average Record
Temperature  
Mean Temperature 68 °F -  
Max Temperature 73 °F 76 °F 91 °F (1983)
Min Temperature 64 °F 54 °F 36 °F (1974)
Cooling Degree Days 4    
Growing Degree Days 18 (Base 50)    
Moisture  
Dew Point 64 °F    
Average Humidity 87    
Maximum Humidity 94    
Minimum Humidity 64    
Precipitation  
Precipitation 2.78 in - - ()
Sea Level Pressure  
Sea Level Pressure 29.84 in    
Wind  
Wind Speed 9 mph (SSW)    
Max Wind Speed 26 mph    
Max Gust Speed 46 mph    
Visibility 9 miles    
Events Thunderstorm    
Averages and records for this station are not official NWS values.
T = Trace of Precipitation, MM = Missing Value Source: NWS Daily Summary

Daily Weather History Graph

Daily Weather History Graph

Search for Another Location

Airport or City:

Trip Planner

Search our weather history database for the weather conditions in past years. The results will help you decide how hot, cold, wet, or windy it might be!

Date:

Astronomy

Sep. 04, 2014 Rise Set
Actual Time 6:16 AM CDT 7:22 PM CDT
Civil Twilight 5:45 AM CDT 7:52 PM CDT
Nautical Twilight 5:09 AM CDT 8:28 PM CDT
Astronomical Twilight 4:31 AM CDT 9:06 PM CDT
Moon 4:07 PM CDT (9/4) 12:57 AM CDT (9/4)
Length of Visible Light 14h 06m
Length of Day
13h 06m
Waxing Gibbous, 74% of the Moon is Illuminated
Sep 4
Waxing Gibbous
Sep 8
Full
Sep 15
Last Quarter
Sep 24
New
Oct 1
First Quarter

Hourly Weather History & Observations

Time (CDT) Temp. Dew Point Humidity Pressure Visibility Wind Dir Wind Speed Gust Speed Precip Events Conditions
12:15 AM 69.8 °F 57.2 °F 64% 29.84 in 10.0 mi South 10.4 mph - N/A   Scattered Clouds
12:35 AM 69.8 °F 59.0 °F 68% 29.85 in 10.0 mi SSW 8.1 mph - N/A Thunderstorm Mostly Cloudy
12:55 AM 69.8 °F 60.8 °F 73% 29.89 in 9.0 mi WNW 3.5 mph - 0.09 in Thunderstorm Thunderstorm
1:15 AM 64.4 °F 60.8 °F 88% 29.93 in 3.0 mi NW 3.5 mph - 0.67 in Thunderstorm Thunderstorm
1:35 AM 66.2 °F 62.6 °F 88% 29.90 in 5.0 mi SSW 15.0 mph 24.2 mph 0.86 in Thunderstorm Thunderstorm
1:55 AM 64.4 °F 62.6 °F 94% 29.87 in 10.0 mi SSW 12.7 mph - 0.89 in Thunderstorm Mostly Cloudy
2:15 AM 64.4 °F 62.6 °F 94% 29.85 in 9.0 mi SSW 13.8 mph 19.6 mph 0.03 in   Overcast
2:35 AM 64.4 °F 62.6 °F 94% 29.78 in 10.0 mi South 25.3 mph 31.1 mph 0.07 in Thunderstorm Overcast
2:55 AM 66.2 °F 62.6 °F 88% 29.76 in 10.0 mi South 15.0 mph 26.5 mph 0.08 in   Scattered Clouds
3:15 AM 66.2 °F 62.6 °F 88% 29.84 in 10.0 mi NNW 9.2 mph - N/A   Scattered Clouds
3:35 AM 66.2 °F 62.6 °F 88% 29.85 in 10.0 mi Calm Calm - N/A   Mostly Cloudy
3:55 AM 64.4 °F 62.6 °F 94% 29.85 in 10.0 mi Calm Calm - N/A   Mostly Cloudy
4:15 AM 64.4 °F 60.8 °F 88% 29.84 in 10.0 mi Calm Calm - N/A   Overcast
4:35 AM 64.4 °F 60.8 °F 88% 29.84 in 10.0 mi Calm Calm - N/A   Overcast
4:55 AM 64.4 °F 62.6 °F 94% 29.84 in 10.0 mi SE 3.5 mph - N/A   Overcast
5:15 AM 64.4 °F 62.6 °F 94% 29.84 in 10.0 mi SSE 5.8 mph - N/A   Mostly Cloudy
5:35 AM 64.4 °F 62.6 °F 94% 29.84 in 10.0 mi South 5.8 mph - N/A   Mostly Cloudy
5:55 AM 66.2 °F 62.6 °F 88% 29.82 in 10.0 mi SSE 5.8 mph - N/A   Mostly Cloudy
6:15 AM 66.2 °F 62.6 °F 88% 29.81 in 10.0 mi SSE 6.9 mph - N/A   Partly Cloudy
6:35 AM 66.2 °F 62.6 °F 88% 29.80 in 10.0 mi South 5.8 mph - N/A   Clear
6:55 AM 66.2 °F 62.6 °F 88% 29.80 in 10.0 mi South 5.8 mph - N/A   Clear
7:15 AM 66.2 °F 62.6 °F 88% 29.81 in 10.0 mi SSW 4.6 mph - N/A   Clear
7:35 AM 66.2 °F 62.6 °F 88% 29.83 in 10.0 mi South 3.5 mph - N/A   Clear
7:55 AM 68.0 °F 64.4 °F 88% 29.84 in 10.0 mi SW 4.6 mph - N/A   Clear
8:15 AM 69.8 °F 64.4 °F 83% 29.84 in 10.0 mi SW 4.6 mph - N/A   Clear
8:35 AM 69.8 °F 64.4 °F 83% 29.83 in 10.0 mi SW 6.9 mph - N/A   Clear
8:55 AM 71.6 °F 66.2 °F 83% 29.83 in 10.0 mi SSW 9.2 mph - N/A   Clear
9:15 AM 73.4 °F 68.0 °F 83% 29.83 in 10.0 mi SSW 12.7 mph - N/A   Clear
9:35 AM 73.4 °F 66.2 °F 78% 29.84 in 10.0 mi SW 8.1 mph - N/A   Scattered Clouds
9:55 AM 71.6 °F 66.2 °F 83% 29.83 in 10.0 mi SSW 8.1 mph - N/A   Overcast
10:15 AM 71.6 °F 66.2 °F 83% 29.83 in 7.0 mi SSW 6.9 mph - N/A   Overcast
10:35 AM 71.6 °F 66.2 °F 83% 29.84 in 9.0 mi SSW 5.8 mph - N/A   Overcast
10:55 AM 71.6 °F 66.2 °F 83% 29.83 in 10.0 mi South 5.8 mph - N/A   Overcast
11:15 AM 73.4 °F 66.2 °F 78% 29.84 in 10.0 mi South 9.2 mph - N/A   Overcast
11:35 AM 71.6 °F 66.2 °F 83% 29.85 in 10.0 mi SSW 9.2 mph - N/A   Overcast
11:55 AM 71.6 °F 66.2 °F 83% 29.85 in 10.0 mi SW 10.4 mph - N/A Thunderstorm Overcast
12:15 PM 69.8 °F 64.4 °F 83% 29.94 in 1.5 mi North 15.0 mph 24.2 mph 0.63 in Thunderstorm Thunderstorm
12:35 PM 66.2 °F 62.6 °F 88% 29.85 in 10.0 mi East 5.8 mph - 0.67 in Thunderstorm Mostly Cloudy
12:55 PM 66.2 °F 62.6 °F 88% 29.88 in 10.0 mi South 9.2 mph - 0.68 in   Overcast
1:15 PM 66.2 °F 62.6 °F 88% 29.89 in 10.0 mi South 10.4 mph - N/A   Mostly Cloudy
1:35 PM 66.2 °F 64.4 °F 94% 29.86 in 10.0 mi SSW 11.5 mph - N/A   Mostly Cloudy
1:55 PM 66.2 °F 64.4 °F 94% 29.86 in 10.0 mi SSW 13.8 mph 17.3 mph N/A   Scattered Clouds
2:15 PM 69.8 °F 64.4 °F 83% 29.87 in 10.0 mi SSW 10.4 mph - N/A   Mostly Cloudy
2:35 PM 69.8 °F 64.4 °F 83% 29.88 in 10.0 mi SW 5.8 mph - N/A   Overcast
2:55 PM 69.8 °F 64.4 °F 83% 29.86 in 10.0 mi SSW 8.1 mph - N/A Thunderstorm Overcast
3:15 PM 69.8 °F 64.4 °F 83% 29.87 in 10.0 mi SSW 8.1 mph - N/A Thunderstorm Overcast
3:35 PM 69.8 °F 64.4 °F 83% 29.85 in 10.0 mi SSW 8.1 mph - N/A   Mostly Cloudy
3:55 PM 69.8 °F 64.4 °F 83% 29.81 in 10.0 mi South 19.6 mph 24.2 mph N/A Thunderstorm Scattered Clouds
4:15 PM 68.0 °F 62.6 °F 83% 29.82 in 10.0 mi South 12.7 mph 19.6 mph N/A   Clear
4:35 PM 68.0 °F 62.6 °F 83% 29.85 in 10.0 mi WSW 4.6 mph - 0.04 in Thunderstorm Mostly Cloudy
4:55 PM 66.2 °F 62.6 °F 88% 29.81 in 7.0 mi South 11.5 mph - 0.12 in Thunderstorm Thunderstorm
5:15 PM 68.0 °F 62.6 °F 83% 29.84 in 9.0 mi West 6.9 mph 19.6 mph 0.04 in Thunderstorm Mostly Cloudy
5:35 PM 66.2 °F 62.6 °F 88% 29.76 in 10.0 mi South 26.5 mph 35.7 mph 0.05 in Thunderstorm Thunderstorm
5:55 PM 66.2 °F 62.6 °F 88% 29.78 in 10.0 mi SW 18.4 mph 46.0 mph 0.05 in   Overcast
6:15 PM 68.0 °F 64.4 °F 88% 29.83 in 10.0 mi SW 20.7 mph 29.9 mph N/A   Mostly Cloudy
6:35 PM 68.0 °F 64.4 °F 88% 29.81 in 9.0 mi SSW 20.7 mph 28.8 mph 0.01 in   Mostly Cloudy
6:55 PM 66.2 °F 64.4 °F 94% 29.79 in 10.0 mi South 13.8 mph - 0.01 in Thunderstorm Thunderstorm
7:15 PM 66.2 °F 64.4 °F 94% 29.87 in 10.0 mi SW 24.2 mph 32.2 mph 0.01 in Thunderstorm Overcast
7:35 PM 66.2 °F 64.4 °F 94% 29.85 in 10.0 mi WSW 10.4 mph - 0.01 in   Overcast
7:55 PM 66.2 °F 64.4 °F 94% 29.82 in 10.0 mi SSW 17.3 mph 26.5 mph 0.03 in   Mostly Cloudy
8:15 PM 66.2 °F 64.4 °F 94% 29.82 in 10.0 mi SSW 23.0 mph 29.9 mph N/A   Mostly Cloudy
8:35 PM 66.2 °F 62.6 °F 88% 29.81 in 10.0 mi SSW 18.4 mph 25.3 mph N/A   Scattered Clouds
9:15 PM 68.0 °F 64.4 °F 88% 29.84 in 10.0 mi SW 17.3 mph 23.0 mph N/A Thunderstorm Clear
9:35 PM 68.0 °F 62.6 °F 83% 29.83 in 10.0 mi SW 17.3 mph 24.2 mph N/A Thunderstorm Clear
9:55 PM 68.0 °F 62.6 °F 83% 29.82 in 7.0 mi SSW 17.3 mph 25.3 mph 0.04 in Thunderstorm Thunderstorm
10:15 PM 68.0 °F 64.4 °F 88% 29.83 in 10.0 mi SW 15.0 mph 20.7 mph N/A Thunderstorm Thunderstorm
10:35 PM 68.0 °F 64.4 °F 88% 29.87 in 3.0 mi WSW 8.1 mph 17.3 mph 0.39 in Thunderstorm Thunderstorm
10:55 PM 68.0 °F 64.4 °F 88% 29.86 in 10.0 mi NNW 4.6 mph - 0.45 in Thunderstorm Thunderstorm
11:15 PM 66.2 °F 64.4 °F 94% 29.84 in 10.0 mi East 4.6 mph - 0.01 in Thunderstorm Thunderstorm
11:35 PM 68.0 °F 64.4 °F 88% 29.87 in 10.0 mi North 16.1 mph - 0.06 in Thunderstorm Thunderstorm
11:55 PM 69.8 °F 66.2 °F 88% 29.82 in 5.0 mi SE 9.2 mph 16.1 mph 0.34 in Thunderstorm Thunderstorm